| time (UTC) | temp C | wind direction | speed KPH | gust KPH | rain 1hr cm | rain 24hr cm | rain mn cm | humidity % | barometer mb |
| 20260504081120 | 18 | 272 | 14.5 | 17.7 | 0.00 | 0.15 | 0.00 | 60 | 1014.7 |
| 20260504060122 | 18 | 271 | 12.9 | 22.5 | 0.00 | 0.74 | 0.00 | 51 | 1014.3 |
| 20260504045621 | 20 | 247 | 20.9 | 27.4 | 0.00 | 1.60 | 0.00 | 49 | 1013.4 |
| 20260504044321 | 20 | 278 | 9.7 | 19.3 | 0.00 | 1.63 | 0.00 | 48 | 1013.4 |
| 20260504043020 | 19 | 225 | 6.4 | 9.7 | 0.00 | 1.68 | 0.00 | 53 | 1013.6 |
| 20260504041721 | 19 | 273 | 16.1 | 22.5 | 0.00 | 1.78 | 0.00 | 52 | 1013.2 |
| 20260504040420 | 19 | 289 | 11.3 | 17.7 | 0.00 | 1.78 | 0.00 | 52 | 1013.5 |
| 20260504035121 | 19 | 262 | 9.7 | 30.6 | 0.00 | 1.83 | 0.00 | 52 | 1013.4 |
| 20260504033821 | 19 | 275 | 4.8 | 19.3 | 0.00 | 1.83 | 0.00 | 55 | 1013.3 |
| 20260504032521 | 18 | 281 | 12.9 | 20.9 | 0.00 | 1.93 | 0.00 | 56 | 1013.3 |
| 20260504031221 | 18 | 240 | 12.9 | 24.1 | 0.00 | 1.98 | 0.00 | 55 | 1013.2 |
| 20260504025920 | 18 | 290 | 14.5 | 16.1 | 0.00 | 2.03 | 0.00 | 58 | 1013.1 |
| 20260504024620 | 18 | 258 | 16.1 | 25.7 | 0.00 | 2.03 | 0.00 | 58 | 1013.1 |
| 20260504023321 | 18 | 277 | 9.7 | 24.1 | 0.00 | 2.08 | 0.00 | 59 | 1013.1 |
| 20260504022021 | 18 | 278 | 11.3 | 17.7 | 0.00 | 2.08 | 0.00 | 58 | 1013.3 |
| 20260504021203 | 18 | 280 | 12.9 | 17.7 | 0.00 | 2.08 | 0.00 | 58 | 1013.3 |
| 20260504020720 | 18 | 256 | 11.3 | 25.7 | 0.00 | 2.08 | 0.00 | 59 | 1013.3 |
| 20260504015422 | 18 | 266 | 11.3 | 20.9 | 0.00 | 2.08 | 0.00 | 57 | 1013.2 |
| 20260504014121 | 17 | 259 | 8.0 | 24.1 | 0.00 | 2.08 | 0.00 | 57 | 1013.1 |
| 20260504012821 | 17 | 264 | 16.1 | 22.5 | 0.00 | 2.08 | 0.00 | 59 | 1013.2 |
| 20260504011520 | 17 | 257 | 11.3 | 24.1 | 0.00 | 2.08 | 0.00 | 62 | 1013.2 |
| 20260504011203 | 16 | 264 | 16.1 | 32.2 | 0.00 | 2.08 | 0.00 | 63 | 1013.1 |
| 20260504010220 | 16 | 257 | 16.1 | 24.1 | 0.00 | 2.08 | 0.00 | 64 | 1013.0 |
| 20260504004921 | 16 | 275 | 4.8 | 11.3 | 0.00 | 2.08 | 0.00 | 69 | 1012.9 |
| 20260504003621 | 16 | 262 | 11.3 | 22.5 | 0.00 | 2.08 | 0.00 | 69 | 1012.8 |
| 20260504002320 | 15 | 256 | 11.3 | 20.9 | 0.00 | 2.08 | 0.00 | 70 | 1012.5 |
| 20260504001020 | 15 | 273 | 12.9 | 24.1 | 0.00 | 2.08 | 0.00 | 70 | 1012.4 |
| 20260503235720 | 15 | 246 | 11.3 | 25.7 | 0.00 | 2.08 | 0.00 | 70 | 1012.1 |
| 20260503234420 | 15 | 241 | 17.7 | 33.8 | 0.00 | 2.08 | 0.00 | 71 | 1011.8 |
| 20260503233121 | 15 | 251 | 11.3 | 14.5 | 0.00 | 2.08 | 0.00 | 71 | 1011.3 |
| 20260503231821 | 15 | 259 | 6.4 | 22.5 | 0.00 | 2.08 | 0.00 | 73 | 1011.2 |
| 20260503230520 | 15 | 245 | 6.4 | 11.3 | 0.00 | 2.08 | 0.00 | 71 | 1010.9 |
| 20260503225220 | 15 | 238 | 12.9 | 20.9 | 0.00 | 2.08 | 0.00 | 72 | 1010.8 |
| 20260503223921 | 15 | 266 | 6.4 | 11.3 | 0.00 | 2.08 | 0.00 | 72 | 1010.6 |
| 20260503222621 | 15 | 244 | 4.8 | 8.0 | 0.00 | 2.08 | 0.00 | 73 | 1010.6 |
| 20260503221321 | 15 | 239 | 11.3 | 22.5 | 0.00 | 2.08 | 0.00 | 73 | 1010.3 |
| 20260503220020 | 15 | 245 | 8.0 | 16.1 | 0.00 | 2.08 | 0.00 | 73 | 1010.1 |
| 20260503214720 | 15 | 260 | 8.0 | 19.3 | 0.00 | 2.08 | 0.00 | 74 | 1009.9 |
| 20260503213421 | 15 | 259 | 8.0 | 8.0 | 0.00 | 2.08 | 0.00 | 75 | 1009.5 |
| 20260503212121 | 15 | 239 | 9.7 | 16.1 | 0.00 | 2.08 | 0.00 | 77 | 1009.0 |
| 20260503210820 | 15 | 240 | 12.9 | 22.5 | 0.00 | 2.08 | 0.00 | 78 | 1008.3 |
| 20260503205522 | 15 | 247 | 9.7 | 17.7 | 0.00 | 2.08 | 0.00 | 79 | 1008.0 |
| 20260503204221 | 16 | 235 | 9.7 | 19.3 | 0.00 | 2.08 | 0.00 | 79 | 1007.7 |
| 20260503202921 | 16 | 227 | 14.5 | 20.9 | 0.00 | 2.08 | 0.00 | 80 | 1007.6 |
| 20260503201620 | 15 | 233 | 11.3 | 14.5 | 0.00 | 2.08 | 0.00 | 80 | 1007.3 |
| 20260503200320 | 15 | 230 | 9.7 | 20.9 | 0.00 | 2.08 | 0.00 | 81 | 1007.3 |
| 20260503195022 | 15 | 233 | 9.7 | 16.1 | 0.00 | 2.08 | 0.00 | 81 | 1007.2 |
| 20260503194203 | 15 | 243 | 8.0 | 9.7 | 0.00 | 2.08 | 0.00 | 81 | 1007.2 |
| 20260503193721 | 16 | 244 | 11.3 | 19.3 | 0.00 | 2.08 | 0.00 | 81 | 1007.1 |
| 20260503192421 | 16 | 234 | 11.3 | 14.5 | 0.00 | 2.08 | 0.00 | 80 | 1006.9 |
| 20260503191120 | 15 | 258 | 8.0 | 16.1 | 0.00 | 2.08 | 0.00 | 80 | 1006.8 |
| 20260503185820 | 15 | 241 | 8.0 | 9.7 | 0.00 | 2.08 | 0.00 | 82 | 1006.8 |
| 20260503184520 | 15 | 239 | 6.4 | 16.1 | 0.00 | 2.08 | 0.00 | 82 | 1006.9 |
| 20260503183221 | 15 | 245 | 9.7 | 19.3 | 0.00 | 2.08 | 0.00 | 82 | 1006.9 |
| 20260503181921 | 16 | 235 | 8.0 | 14.5 | 0.00 | 2.08 | 0.00 | 83 | 1006.9 |
| 20260503180620 | 16 | 247 | 8.0 | 17.7 | 0.00 | 2.08 | 0.00 | 82 | 1006.8 |
| 20260503175320 | 16 | 242 | 14.5 | 20.9 | 0.00 | 2.08 | 0.00 | 82 | 1006.5 |
| 20260503174020 | 16 | 238 | 17.7 | 33.8 | 0.00 | 2.08 | 0.00 | 82 | 1006.7 |
| 20260503172720 | 16 | 225 | 11.3 | 16.1 | 0.00 | 2.08 | 0.00 | 82 | 1006.6 |
| 20260503171421 | 16 | 256 | 12.9 | 19.3 | 0.00 | 2.08 | 0.00 | 82 | 1006.4 |
| 20260503170121 | 16 | 240 | 16.1 | 32.2 | 0.00 | 2.08 | 0.00 | 83 | 1006.4 |
| 20260503150421 | 16 | 245 | 14.5 | 22.5 | 0.00 | 2.08 | 0.00 | 83 | 1005.4 |
| 20260503131202 | 16 | 224 | 3.2 | 8.0 | 0.00 | 2.08 | 2.08 | 84 | 1005.2 |
| 20260503130720 | 16 | 241 | 6.4 | 9.7 | 0.00 | 2.08 | 2.08 | 84 | 1005.1 |
| 20260503120220 | 17 | 239 | 9.7 | 16.1 | 0.00 | 2.08 | 2.08 | 86 | 1004.7 |